Regional Weather Roundup
Issued by NWS

Home | Current Version | Previous Version | Graphics & Text | Print | Product List | Glossary On
Versions: 1 2 3 4 5 6 7 8 9 10 11 12 13 14 15 16 17 18 19 20 21 22 23 24 25 26 27 28 29 30 31 32 33 34 35 36 37 38 39 40 41 42 43 44 45 46 47 48 49 50
352
ASUS43 KBIS 091110
RWRND

NORTH DAKOTA REGIONAL WEATHER ROUNDUP
NATIONAL WEATHER SERVICE BISMARCK ND
500 AM CST TUE FEB 09 2016

NOTE: "FAIR" INDICATES FEW OR NO CLOUDS BELOW 12,000 FEET WITH NO
SIGNIFICANT WEATHER AND/OR OBSTRUCTIONS TO VISIBILITY.


NDZ001>003-009>011-017-091200-
NORTHWEST NORTH DAKOTA

CITY           SKY/WX    TMP DP  RH WIND       PRES   REMARKS
WILLISTON      CLOUDY    27  22  81 S3        30.18F
MINOT          CLOUDY    26   9  48 SW10      30.21F WCI  16
MINOT AFB      CLOUDY    23  14  70 CALM      30.20F
$$

NDZ018>021-031>035-040>046-091200-
SOUTHWEST NORTH DAKOTA

CITY           SKY/WX    TMP DP  RH WIND       PRES   REMARKS
BISMARCK       CLOUDY    25  12  58 W5        30.26F WCI  19
DICKINSON      CLOUDY    24  17  74 SE6       30.18S WCI  17
GARRISON         N/A     21  15  78 SW3       30.22F
HETTINGER ARPT CLOUDY    28  16  60 SW6       30.20F
$$

NDZ004>008-012>016-024-026-027-054-091200-
NORTHEAST NORTH DAKOTA

CITY           SKY/WX    TMP DP  RH WIND       PRES   REMARKS
GRAND FORKS    CLOUDY    11   3  70 N15       30.25S WCI  -5
GRND FRKS AFB  CLOUDY    10   4  74 N8        30.25S WCI  -2
DEVILS LAKE    CLOUDY    14   9  80 CALM      30.23F
$$

NDZ022-023-025-028>030-036>039-047>053-091200-
SOUTHEAST NORTH DAKOTA

CITY           SKY/WX    TMP DP  RH WIND       PRES   REMARKS
FARGO          PTCLDY     4  -2  76 NW10      30.25S WCI -11
JAMESTOWN      CLOUDY    13   8  81 NW7       30.23F WCI   3
$$





USA.gov is the U.S. government's official web portal to all federal, state and local government web resources and services.